Погода в Великой Глуше

Украина / Волынская область     51°48′43″N   25°02′59″E
темп.,
°C
ветер,
м/с
пор.,
м/с
влажн.,
%
обл.,
%
осадки,
мм/ч
давл.,
гПа
погр.,
м
16 мая, вс
вс1600:00+10ююз22855 0.0 101014
03:00+9ю338854 0.0 101131
06:00+9ююв3590100 0.0 101082
09:00+14юв5872100 0.0 1010386
12:00+19ююв686196 0.1 10091563
15:00+21ююв575637 1.1 10071842
18:00+19ююв5771100 1.4 10061120
21:00+15ююв3489100 4.9 100662
17 мая, пн
пн1700:00+13ююв3593100 1.9 100798
03:00+13ююз3697100 2.1 1007181
06:00+12з239890 1.2 1007121
09:00+15ссз22795 1.2 1008436
12:00+18всв226353 0.0 10061057
15:00+20ссв2259100 0.5 10051296
18:00+19ссв4466100 0.2 1004964
21:00+15св3486100 0.6 100362
18 мая, вт
вт1800:00+13ссв339398 0.0 100252
03:00+12с2297100 1.0 100149
06:00+12сз2399100 2.1 1000125
09:00+13зсз3496100 3.4 1000305
12:00+14сз3692100 3.6 1001391
15:00+16зсз6881100 6.7 1002784
18:00+13зсз81390100 1.3 1004596
21:00+11зсз71387100 1.4 1005545
19 мая, ср
ср1900:00+11зсз71385100 0.8 1006680
03:00+10зсз71388100 1.9 1006521
06:00+9зсз71394100 2.7 1007544
09:00+10сз71391100 3.8 1007640
12:00+12сз81384100 0.3 10081051
15:00+14сз71068100 0.4 10081437
18:00+14зсз6972100 0.3 10081196
21:00+11зсз4984100 0.3 1009217
20 мая, чт
чт2000:00+9зсз3792100 0.0 1010133
03:00+8зсз379577 0.0 1010142
06:00+6зсз389715 0.0 1010201
09:00+11ссз4680100 0.0 1011497
12:00+14ссз456898 0.1 10111162
15:00+16сз5553100 0.1 10111934
18:00+15ссз3566100 0.0 1011262
21:00+12сз4878100 0.2 1012146